Regional Weather Roundup
Issued by NWS Cleveland, OH

Home | Current Version | Previous Version | Graphics & Text | Print | Product List | Glossary On
Versions: 1 2 3 4 5 6 7 8 9 10 11 12 13 14 15 16 17 18 19 20 21 22 23 24 25 26 27 28 29 30 31 32 33 34 35 36 37 38 39 40 41 42 43 44 45 46 47 48 49 50
000
ASUS41 KCLE 230810
RWRCLE
OHIO REGIONAL WEATHER ROUNDUP
NATIONAL WEATHER SERVICE WILMINGTON, OH
300 AM EST MON JAN 23 2017

NOTE: "FAIR" INDICATES FEW OR NO CLOUDS BELOW 12,000 FEET WITH NO
SIGNIFICANT WEATHER AND/OR OBSTRUCTIONS TO VISIBILITY.

OHZ001>008-015>018-024>027-034-035-043-044-230900-
   NORTHWEST OHIO

CITY           SKY/WX    TMP DP  RH WIND       PRES   REMARKS
DEFIANCE       CLOUDY    42  42 100 NE9       29.58R FOG
FINDLAY        CLOUDY    39  36  89 NE14G23   29.54R FOG
TOLEDO EXPRESS FOG       42  42 100 NE12      29.59R VSB 1/2
TOLEDO EXEC    FOG       41  41 100 NE9       29.60R VSB 1/2
LIMA           CLOUDY    39  39 100 N15       29.52S FOG
$$

OHZ009>014-019>023-028>033-038-089-230900-
   NORTHEAST OHIO

CITY           SKY/WX    TMP DP  RH WIND       PRES   REMARKS
CLE-HOPKINS    CLOUDY    41  37  86 N8        29.57S FOG
CLE-LAKEFRONT  FOG       38  37  97 NE15      29.55F VSB 1
CUY CO. ARPT   NOT AVBL
LORAIN-ELYRIA  CLOUDY    38  36  92 NE10      29.55S FOG
ASHTABULA      FOG       39  39 100 NE6       29.60S VSB 1/2
AKRON-CANTON   RAIN      50  46  86 E14       29.51S FOG
WOOSTER        LGT RAIN  50  47  89 E10       29.51S
MANSFIELD      CLOUDY    47  45  93 N9        29.50S
YOUNGSTOWN     LGT RAIN  50  45  83 E8        29.56S
$$

OHZ042-051>053-060>062-070>072-077>081-230900-
  SOUTHWEST OHIO

CITY           SKY/WX    TMP DP  RH WIND       PRES   REMARKS
CINC-COVINGTON CLOUDY    53  48  83 N15       29.40R
CINC-LUNKEN    CLOUDY    56  49  77 N8        29.41S
HAMILTON       CLOUDY    52  48  86 N13       29.44S
DAYTON         CLOUDY    46  44  93 N17       29.47R
WRIGHT-PAT AFB CLOUDY    51  49  95 N10       29.45R
DAYTON GENERAL CLOUDY    51  47  86 N9        29.43R
WILMINGTON     CLOUDY    51  48  89 N14       29.40F
$$

OHZ036-037-039>041-045>050-054>059-063>069-073>076-082>088-230900-
  CENTRAL AND SOUTHEAST OHIO

CITY           SKY/WX    TMP DP  RH WIND       PRES   REMARKS
COLUMBUS       CLOUDY    56  48  74 NE12      29.42F
OSU AIRPORT    LGT RAIN  52  50  93 N9        29.44S
BOLTON FIELD   CLOUDY    54  49  85 N13       29.44S
RICKENBACK AFB   N/A     54  48  80 NE10      29.41S
NEWARK         CLOUDY    54  48  80 NE7       29.43S
MARION         LGT RAIN  42  40  92 N13       29.50S FOG
LANCASTER      LGT RAIN  56  48  74 NE10      29.42S
ZANESVILLE     CLOUDY    54  47  77 E12       29.44R
NEW PHILLY     LGT RAIN  51  49  92 NE7       29.49S FOG
$$




USA.gov is the U.S. government's official web portal to all federal, state and local government web resources and services.